| time (UTC) | temp F | wind direction | speed knots | gust knots | rain 1hr in | rain 24hr in | rain mn in | humidity % | barometer mb |
| 20260506201529 | 74 | 161 | 0.9 | 5.2 | 0.00 | 0.00 | 0.00 | 62 | 1018.8 |
| 20260506200027 | 74 | 127 | 0.9 | 4.3 | 0.00 | 0.00 | 0.00 | 62 | 1018.9 |
| 20260506194526 | 74 | 38 | 0.9 | 3.5 | 0.00 | 0.00 | 0.00 | 63 | 1019.0 |
| 20260506193024 | 73 | 75 | 0.0 | 5.2 | 0.00 | 0.00 | 0.00 | 64 | 1019.1 |
| 20260506191521 | 71 | 65 | 2.6 | 5.2 | 0.00 | 0.00 | 0.00 | 66 | 1019.2 |
| 20260506190020 | 71 | 165 | 1.7 | 4.3 | 0.00 | 0.00 | 0.00 | 66 | 1019.4 |
| 20260506184537 | 70 | 79 | 1.7 | 4.3 | 0.00 | 0.00 | 0.00 | 66 | 1019.6 |
| 20260506183027 | 69 | 27 | 0.9 | 3.5 | 0.00 | 0.00 | 0.00 | 68 | 1019.7 |
| 20260506181516 | 68 | 65 | 0.9 | 3.5 | 0.00 | 0.00 | 0.00 | 69 | 1019.8 |
| 20260506180012 | 67 | 234 | 0.9 | 5.2 | 0.00 | 0.00 | 0.00 | 70 | 1019.7 |
| 20260506174510 | 66 | 58 | 1.7 | 4.3 | 0.00 | 0.00 | 0.00 | 71 | 1019.7 |
| 20260506173009 | 66 | 64 | 1.7 | 7.0 | 0.00 | 0.00 | 0.00 | 71 | 1019.7 |
| 20260506171508 | 65 | 89 | 0.9 | 4.3 | 0.00 | 0.00 | 0.00 | 73 | 1019.8 |
| 20260506170007 | 65 | 57 | 0.9 | 2.6 | 0.00 | 0.00 | 0.00 | 73 | 1019.8 |
| 20260506164508 | 64 | 20 | 0.0 | 4.3 | 0.00 | 0.00 | 0.00 | 74 | 1019.9 |
| 20260506163002 | 63 | 299 | 0.0 | 2.6 | 0.00 | 0.00 | 0.00 | 74 | 1019.8 |
| 20260506161559 | 61 | 284 | 0.0 | 1.7 | 0.00 | 0.00 | 0.00 | 78 | 1019.9 |
| 20260506160105 | 60 | 323 | 0.9 | 3.5 | 0.00 | 0.00 | 0.00 | 80 | 1019.9 |
| 20260506154601 | 60 | 288 | 0.9 | 1.7 | 0.00 | 0.00 | 0.00 | 79 | 1019.8 |
| 20260506153112 | 60 | 262 | 0.0 | 1.7 | 0.00 | 0.00 | 0.00 | 81 | 1019.9 |
| 20260506151552 | 59 | 286 | 0.0 | 2.6 | 0.00 | 0.00 | 0.00 | 82 | 1019.8 |
| 20260506150058 | 58 | 58 | 0.0 | 2.6 | 0.00 | 0.00 | 0.00 | 84 | 1019.8 |
| 20260506144554 | 57 | 67 | 0.0 | 1.7 | 0.00 | 0.00 | 0.00 | 87 | 1019.8 |
| 20260506143043 | 56 | 269 | 0.0 | 1.7 | 0.00 | 0.00 | 0.00 | 88 | 1019.8 |
| 20260506141542 | 55 | 281 | 0.0 | 1.7 | 0.00 | 0.00 | 0.00 | 88 | 1019.6 |
| 20260506140040 | 55 | 296 | 0.9 | 2.6 | 0.00 | 0.00 | 0.00 | 89 | 1019.4 |
| 20260506134538 | 55 | 277 | 0.0 | 1.7 | 0.00 | 0.00 | 0.00 | 89 | 1019.3 |
| 20260506133038 | 55 | 275 | 0.9 | 2.6 | 0.00 | 0.00 | 0.00 | 89 | 1019.2 |
| 20260506131540 | 55 | 295 | 0.0 | 4.3 | 0.00 | 0.00 | 0.00 | 89 | 1019.3 |
| 20260506130034 | 55 | 293 | 0.0 | 0.0 | 0.00 | 0.00 | 0.00 | 89 | 1019.1 |
| 20260506124533 | 55 | 277 | 0.0 | 0.9 | 0.00 | 0.00 | 0.00 | 88 | 1018.9 |
| 20260506123033 | 55 | 289 | 0.0 | 1.7 | 0.00 | 0.00 | 0.00 | 88 | 1019.0 |
| 20260506121532 | 55 | 276 | 0.0 | 2.6 | 0.00 | 0.00 | 0.00 | 88 | 1018.8 |
| 20260506120034 | 55 | 285 | 0.9 | 2.6 | 0.00 | 0.00 | 0.00 | 88 | 1018.8 |
| 20260506114530 | 55 | 280 | 0.9 | 2.6 | 0.00 | 0.00 | 0.00 | 88 | 1018.8 |
| 20260506113037 | 55 | 281 | 0.0 | 0.9 | 0.00 | 0.00 | 0.00 | 87 | 1018.5 |
| 20260506111528 | 55 | 281 | 0.0 | 2.6 | 0.00 | 0.00 | 0.00 | 86 | 1018.4 |
| 20260506110025 | 55 | 270 | 0.9 | 2.6 | 0.00 | 0.00 | 0.00 | 86 | 1018.3 |
| 20260506104525 | 55 | 270 | 0.0 | 1.7 | 0.00 | 0.00 | 0.00 | 86 | 1018.2 |
| 20260506103026 | 55 | 293 | 0.0 | 1.7 | 0.00 | 0.00 | 0.00 | 86 | 1018.2 |
| 20260506101523 | 55 | 290 | 0.9 | 2.6 | 0.00 | 0.00 | 0.00 | 86 | 1018.1 |
| 20260506100022 | 55 | 279 | 0.9 | 1.7 | 0.00 | 0.00 | 0.00 | 86 | 1018.1 |
| 20260506094522 | 55 | 294 | 0.0 | 0.9 | 0.00 | 0.00 | 0.00 | 86 | 1018.2 |
| 20260506093020 | 55 | 303 | 0.9 | 2.6 | 0.00 | 0.00 | 0.00 | 85 | 1018.2 |
| 20260506091519 | 54 | 14 | 0.0 | 1.7 | 0.00 | 0.00 | 0.00 | 86 | 1018.2 |
| 20260506090022 | 54 | 275 | 0.0 | 0.9 | 0.00 | 0.00 | 0.00 | 86 | 1018.1 |
| 20260506084518 | 54 | 303 | 0.0 | 1.7 | 0.00 | 0.02 | 0.00 | 86 | 1018.2 |
| 20260506083017 | 54 | 291 | 0.0 | 2.6 | 0.00 | 0.02 | 0.00 | 86 | 1018.2 |
| 20260506081519 | 54 | 309 | 0.0 | 1.7 | 0.00 | 0.02 | 0.00 | 87 | 1018.2 |
| 20260506073009 | 53 | 277 | 0.0 | 1.7 | 0.00 | 0.05 | 0.00 | 89 | 1018.0 |
| 20260506071507 | 52 | 274 | 0.0 | 0.0 | 0.00 | 0.05 | 0.00 | 90 | 1017.9 |
| 20260506061501 | 52 | 297 | 0.9 | 1.7 | 0.00 | 0.06 | 0.05 | 90 | 1017.6 |
| 20260506050107 | 53 | 266 | 0.0 | 2.6 | 0.00 | 0.09 | 0.05 | 88 | 1017.2 |
| 20260506044555 | 54 | 267 | 0.9 | 2.6 | 0.00 | 0.15 | 0.05 | 88 | 1017.1 |
| 20260506043053 | 54 | 293 | 0.0 | 1.7 | 0.00 | 0.15 | 0.05 | 87 | 1017.0 |
| 20260506041551 | 55 | 302 | 0.9 | 2.6 | 0.00 | 0.15 | 0.05 | 87 | 1016.7 |
| 20260506040049 | 55 | 266 | 0.0 | 2.6 | 0.00 | 0.15 | 0.05 | 86 | 1016.4 |
| 20260506034559 | 56 | 290 | 0.9 | 2.6 | 0.00 | 0.17 | 0.05 | 84 | 1016.1 |
| 20260506033045 | 56 | 276 | 0.0 | 3.5 | 0.00 | 0.17 | 0.05 | 83 | 1015.8 |
| 20260506031544 | 57 | 291 | 0.0 | 3.5 | 0.00 | 0.17 | 0.05 | 83 | 1015.5 |
| 20260506030043 | 57 | 285 | 0.0 | 3.5 | 0.00 | 0.17 | 0.05 | 82 | 1015.4 |
| 20260506024557 | 58 | 276 | 0.9 | 3.5 | 0.00 | 0.17 | 0.05 | 81 | 1015.3 |
| 20260506023041 | 59 | 280 | 0.0 | 4.3 | 0.00 | 0.17 | 0.05 | 80 | 1015.3 |
| 20260506021540 | 59 | 289 | 0.9 | 5.2 | 0.00 | 0.17 | 0.05 | 80 | 1015.1 |
| 20260506020039 | 60 | 266 | 1.7 | 5.2 | 0.00 | 0.17 | 0.05 | 80 | 1014.8 |
| 20260506014538 | 61 | 293 | 0.9 | 7.0 | 0.00 | 0.17 | 0.05 | 79 | 1014.8 |
| 20260506013057 | 61 | 290 | 0.0 | 4.3 | 0.00 | 0.17 | 0.05 | 78 | 1014.8 |
| 20260506011542 | 61 | 360 | 2.6 | 6.1 | 0.00 | 0.17 | 0.05 | 77 | 1014.9 |
| 20260506010038 | 62 | 296 | 1.7 | 3.5 | 0.00 | 0.17 | 0.05 | 76 | 1014.8 |
| 20260506004536 | 63 | 324 | 0.9 | 6.1 | 0.00 | 0.17 | 0.05 | 77 | 1014.7 |
| 20260506003038 | 63 | 314 | 1.7 | 6.1 | 0.00 | 0.17 | 0.05 | 76 | 1014.6 |
| 20260506001538 | 62 | 266 | 0.9 | 10.4 | 0.00 | 0.17 | 0.05 | 77 | 1014.5 |
| 20260506000034 | 62 | 335 | 2.6 | 10.4 | 0.00 | 0.17 | 0.05 | 78 | 1014.5 |
| 20260505234537 | 61 | 302 | 4.3 | 8.7 | 0.00 | 0.17 | 0.05 | 77 | 1014.6 |
| 20260505233033 | 62 | 264 | 1.7 | 7.0 | 0.00 | 0.17 | 0.05 | 77 | 1014.5 |
| 20260505231536 | 62 | 293 | 1.7 | 7.8 | 0.00 | 0.17 | 0.05 | 77 | 1014.5 |
| 20260505230048 | 63 | 20 | 0.9 | 7.8 | 0.00 | 0.17 | 0.05 | 76 | 1014.5 |
| 20260505224531 | 64 | 274 | 0.9 | 4.3 | 0.00 | 0.17 | 0.05 | 74 | 1014.4 |
| 20260505223030 | 65 | 8 | 0.9 | 4.3 | 0.00 | 0.17 | 0.05 | 73 | 1014.4 |
| 20260505221534 | 66 | 56 | 0.9 | 4.3 | 0.00 | 0.17 | 0.05 | 72 | 1014.4 |
| 20260505220027 | 64 | 293 | 2.6 | 6.1 | 0.00 | 0.17 | 0.05 | 71 | 1014.5 |
| 20260505214527 | 64 | 251 | 0.9 | 5.2 | 0.00 | 0.17 | 0.05 | 72 | 1014.6 |
| 20260505213033 | 65 | 302 | 0.9 | 3.5 | 0.00 | 0.17 | 0.05 | 73 | 1014.7 |
| 20260505211523 | 63 | 290 | 4.3 | 8.7 | 0.00 | 0.17 | 0.05 | 72 | 1014.7 |
| 20260505210021 | 63 | 297 | 0.9 | 6.1 | 0.00 | 0.17 | 0.05 | 74 | 1014.8 |
| 20260505204520 | 63 | 290 | 1.7 | 6.1 | 0.00 | 0.17 | 0.05 | 74 | 1014.9 |
| 20260505203025 | 62 | 292 | 1.7 | 7.8 | 0.00 | 0.17 | 0.05 | 76 | 1014.9 |